This is the latest recevied weather packets stored in our database for station/object WD4IXD-WX. If no packets are shown the sender has not sent any weather packets the latest 10 day(s).
| Time | Temp. | Humidity | Pressure | Rain* | Wind** | Luminosity | Snow |
|---|---|---|---|---|---|---|---|
| 1778161504 | -1.67° C | 59% | 1021.6 hPa | 0 mm | - | 232 W/m² | - |
| 1778161204 | -2.22° C | 59% | 1021.6 hPa | 0 mm | - | 33 W/m² | - |
| 1778160904 | -2.22° C | 58% | 1021.6 hPa | 0 mm | - | 30 W/m² | - |
| 1778160603 | -2.22° C | 58% | 1021.5 hPa | 0 mm | - | 28 W/m² | - |
| 1778160304 | -2.78° C | 58% | 1021.4 hPa | 0 mm | - | 28 W/m² | - |
| 1778160003 | -2.78° C | 60% | 1021.4 hPa | 0 mm | - | 26 W/m² | - |
| 1778159704 | -3.33° C | 60% | 1021.3 hPa | 0 mm | - | 26 W/m² | - |
| 1778159403 | -3.33° C | 62% | 1021.4 hPa | 0 mm | - | 35 W/m² | - |
| 1778159104 | -3.33° C | 61% | 1021.4 hPa | 0 mm | - | 30 W/m² | - |
| 1778158804 | -3.33° C | 59% | 1021.4 hPa | 0 mm | - | 32 W/m² | - |
| 1778158504 | -3.89° C | 57% | 1021.3 hPa | 0 mm | - | 37 W/m² | - |
| 1778158204 | -3.89° C | 59% | 1021.4 hPa | 0 mm | - | 35 W/m² | - |
| 1778157904 | -3.89° C | 57% | 1021.4 hPa | 0 mm | - | 28 W/m² | - |
| 1778157604 | -3.89° C | 57% | 1021.3 hPa | 0 mm | - | 21 W/m² | - |
| 1778157304 | -3.33° C | 57% | 1021.2 hPa | 0 mm | - | 18 W/m² | - |
| 1778157004 | -3.33° C | 57% | 1021 hPa | 0 mm | - | 16 W/m² | - |
| 1778156703 | -3.33° C | 58% | 1021 hPa | 0 mm | - | 14 W/m² | - |
| 1778156404 | -3.33° C | 58% | 1021.1 hPa | 0 mm | - | 12 W/m² | - |
| 1778156103 | -3.33° C | 59% | 1021.1 hPa | 0 mm | - | 12 W/m² | - |
| 1778155804 | -3.33° C | 61% | 1021 hPa | 0 mm | - | 9 W/m² | - |
| 1778155504 | -3.33° C | 61% | 1021 hPa | 0 mm | - | 7 W/m² | - |
| 1778155204 | -3.33° C | 60% | 1020.9 hPa | 0 mm | - | 5 W/m² | - |
| 1778154903 | -3.33° C | 57% | 1021 hPa | 0 mm | - | 0 W/m² | - |
| 1778154604 | -3.33° C | 57% | 1020.9 hPa | 0 mm | - | 0 W/m² | - |
| 1778154304 | -3.33° C | 58% | 1020.9 hPa | 0 mm | - | 0 W/m² | - |
* Rain latest hour (hover to see other rain measurements)
** Current wind speed in m/s (hover to see current wind gust speed)